Wind_Speed
27 26 27 27 26 26 25 24 24 24 23 23 22 22 23 24 24 24 24 24 24 24 25 25 25 24 24 24 24 24 24 25 24 24 24 23 24 24 24 24 24 24 23
26 26 26 26 25 24 24 23 23 23 23 22 21 21 21 21 22 22 22 22 23 23 23 23 23 23 23 23 24 24 23 22 22 23 22 22 22 22 22 22 22 22 21
25 24 24 24 24 23 23 22 21 21 20 19 19 19 19 19 19 20 20 21 21 20 20 20 21 22 22 22 22 22 21 21 21 21 20 20 20 20 20 20 19 19 19
22 22 22 21 21 21 20 19 19 18 17 17 17 18 18 18 18 18 17 17 17 17 17 18 18 18 19 19 19 19 19 19 19 18 19 19 18 18 18 18 18 17 16
19 19 18 19 19 18 17 17 17 17 16 15 15 15 15 15 15 15 14 14 15 15 15 15 16 15 16 16 17 17 18 18 18 17 17 17 16 17 17 16 16 15 15
18 18 18 17 16 15 15 15 14 13 13 13 13 13 13 13 12 12 12 13 13 13 13 13 13 13 13 13 13 14 15 15 15 15 15 14 14 14 14 13 13 14 14
16 16 15 15 14 13 12 12 11 11 10 10 10 10 10 10 11 11 11 11 11 11 11 11 11 11 11 11 11 11 11 12 12 12 12 12 12 12 12 12 12 11 11
14 13 13 13 12 11 10 10 10 9 9 8 8 8 7 8 8 9 9 10 10 10 10 9 9 9 9 9 9 9 10 10 10 10 11 10 10 10 10 9 9 9 8
13 12 12 11 10 8 7 8 8 7 7 7 6 6 5 5 5 5 6 7 7 8 8 8 8 8 8 8 8 8 8 8 8 8 8 8 8 7 7 6 6 6 7
11 10 9 9 8 7 6 6 5 5 5 5 5 4 4 4 3 3 3 4 4 4 5 5 5 5 5 6 6 6 6 7 6 6 6 6 5 5 5 5 5 5 5
8 8 8 8 6 6 5 5 5 4 5 4 4 4 4 3 3 2 2 2 2 2 2 2 3 4 4 4 4 4 4 4 5 5 5 5 4 3 3 4 4 3 3
6 6 6 6 5 5 5 5 5 5 5 4 4 4 3 3 3 3 2 1 1 1 1 1 1 2 2 3 3 2 2 3 4 4 5 4 3 2 2 2 2 1 2
5 5 5 4 4 5 5 5 5 6 5 5 4 3 3 3 4 3 3 3 2 2 3 3 3 3 4 4 4 3 3 3 4 4 3 3 2 2 1 1 0 1 2
5 4 4 3 4 4 5 6 6 6 5 5 5 4 4 4 4 4 4 5 5 5 5 5 5 5 5 4 4 4 4 4 4 4 3 2 2 1 1 0 0 1 2
4 4 4 5 5 5 5 5 5 5 6 6 6 6 6 6 6 5 5 6 6 6 6 6 5 4 4 5 5 5 5 5 4 4 3 3 2 1 1 0 1 2 2
4 5 5 5 5 5 5 5 5 6 6 7 7 7 7 7 7 7 7 7 6 7 7 6 6 5 5 5 5 5 5 4 4 3 2 1 1 1 1 2 2 3 3
5 5 5 5 6 6 6 6 6 7 7 7 7 7 8 8 7 7 7 7 6 6 6 6 6 6 5 5 5 4 3 3 3 2 1 1 1 2 2 3 4 4 5
6 6 6 6 6 6 6 7 7 7 7 8 8 8 8 8 7 7 6 6 6 5 5 5 4 4 4 3 3 3 2 2 1 1 1 2 2 3 3 4 5 6 7
6 6 6 6 6 7 7 7 7 7 7 7 7 7 7 7 7 6 6 5 4 4 4 4 4 4 3 3 2 2 1 2 2 2 3 3 4 4 5 6 7 8 9
6 6 6 6 6 6 6 6 6 6 6 6 6 6 6 6 6 6 5 5 4 4 4 3 3 3 2 2 1 2 2 3 3 4 4 5 6 7 8 9 10 11 12
7 6 6 5 5 5 5 5 5 4 4 4 4 4 4 4 4 4 3 4 4 4 4 3 3 3 2 2 3 3 4 5 5 6 7 8 9 10 11 12 13 14 14
6 6 6 6 5 5 5 4 4 3 3 3 3 3 3 3 3 3 2 3 3 3 3 3 4 4 5 5 6 6 7 8 8 9 10 11 12 13 13 14 15 16 17
6 6 6 6 5 5 4 4 3 3 2 2 2 3 3 3 4 3 4 4 4 5 5 6 7 7 8 8 9 9 10 11 12 13 14 14 15 16 16 17 18 19 20
6 5 6 5 5 5 4 4 4 4 3 4 4 5 5 5 6 6 6 7 7 8 9 9 10 10 11 11 12 12 13 14 15 16 17 18 18 19 19 20 21 22 23
5 5 5 5 5 5 5 5 5 6 6 6 7 7 8 8 9 9 10 10 11 11 12 12 13 13 14 15 16 16 17 17 18 20 21 21 22 23 23 24 25 26 27
6 6 6 6 7 7 7 7 8 8 8 9 9 9 10 11 11 12 12 13 13 14 14 15 16 17 18 18 19 20 21 21 22 23 24 25 26 26 27 28 29 30 31
Wind_Direction
293 292 291 290 289 288 286 285 285 284 284 284 284 281 278 275 274 274 274 274 275 274 274 272 272 271 270 269 268 268 269 268 267 267 267 268 270 271 273 274 274 275 276
295 294 293 291 289 288 287 286 285 285 285 286 285 282 279 277 275 273 272 274 275 274 273 272 272 270 270 269 267 266 267 268 266 266 267 267 269 271 273 274 273 274 275
296 295 295 293 291 288 288 288 286 286 287 286 286 283 280 278 276 274 274 274 276 274 273 272 271 268 267 265 265 265 265 266 265 265 266 269 270 272 273 274 274 275 275
302 300 296 296 296 292 288 287 287 288 288 289 289 286 282 279 278 277 276 275 272 271 272 273 272 270 269 267 264 264 264 264 264 265 266 269 269 271 272 273 273 274 275
304 304 302 302 301 297 292 290 289 287 288 288 287 285 282 279 277 275 274 273 271 272 273 273 272 272 270 268 265 263 263 263 264 266 266 268 268 268 269 269 268 271 275
305 306 307 307 306 305 299 296 296 295 292 288 289 288 284 280 277 273 271 271 273 274 274 271 270 270 267 265 262 260 259 261 262 262 262 263 265 264 263 264 269 271 273
306 309 311 312 311 309 307 306 305 302 299 297 295 293 290 284 277 274 272 271 271 272 272 270 268 267 264 261 259 256 257 258 259 256 256 260 257 257 260 265 269 272 276
308 310 312 314 315 312 311 310 309 307 306 303 302 298 294 290 283 275 270 269 272 271 269 267 267 264 259 255 252 253 251 256 257 253 253 256 254 251 256 262 268 275 279
313 316 319 320 319 317 318 319 317 316 317 317 316 315 312 306 295 284 278 273 273 271 267 262 261 255 249 247 247 249 250 252 250 247 248 245 242 242 246 253 262 273 282
315 321 326 326 325 325 328 330 332 334 334 332 333 332 332 328 315 302 290 282 279 278 269 257 250 241 237 237 238 244 244 243 242 236 229 225 227 234 242 253 265 271 276
320 323 327 336 341 344 349 353 356 353 349 349 346 346 347 351 352 342 322 303 301 303 293 253 225 209 216 216 220 227 229 232 226 217 212 211 218 231 247 260 262 263 272
330 336 340 348 355 351 353 358 2 5 8 2 3 12 15 15 18 26 27 20 43 38 81 115 147 168 172 170 168 180 197 203 192 188 194 202 213 220 232 241 249 275 285
335 343 350 353 355 358 4 11 14 20 30 31 29 31 39 41 54 56 57 55 64 77 102 117 119 127 122 130 134 132 139 146 147 151 160 175 186 194 225 244 259 299 311
357 358 357 5 15 27 32 37 35 34 36 38 47 57 61 64 66 66 67 69 77 82 94 102 111 114 118 128 122 119 122 128 132 132 134 143 163 178 180 218 272 317 325
17 26 34 37 36 34 36 39 38 38 42 52 56 63 69 73 78 79 83 83 82 82 87 93 98 96 117 126 120 123 127 126 128 129 131 115 116 126 126 16 330 314 321
47 50 49 42 41 39 40 44 47 50 53 57 60 69 75 77 82 86 88 87 87 89 87 89 94 99 111 120 123 124 121 121 122 119 118 109 85 57 22 348 333 330 332
57 60 56 54 55 56 55 53 56 57 61 64 67 72 77 81 85 89 92 91 90 88 86 85 88 92 93 97 104 107 109 112 112 108 96 61 7 348 340 337 333 331 330
59 62 63 61 58 58 58 59 64 67 69 69 72 77 78 79 80 82 88 91 87 83 79 79 84 85 84 93 95 96 91 84 66 34 3 345 342 337 330 327 323 321 321
58 59 61 60 61 61 62 66 71 71 69 70 74 76 74 72 73 75 82 84 78 68 66 70 74 71 71 75 73 60 32 6 347 341 337 328 322 318 317 316 315 315 316
50 53 58 56 58 58 59 64 69 69 67 67 68 69 66 64 64 63 62 61 61 58 53 55 56 53 44 22 358 341 334 330 326 322 320 315 310 309 310 311 311 312 313
49 50 51 53 50 45 48 55 58 60 62 61 59 60 56 51 51 52 48 43 38 36 37 38 33 22 9 352 334 324 317 312 308 307 305 304 304 304 306 306 307 308 309
45 46 46 44 44 41 41 44 46 46 47 45 40 33 22 14 12 11 10 4 3 1 356 349 339 332 326 320 315 311 307 305 303 302 303 303 302 302 302 303 303 304 305
40 42 40 39 39 36 34 33 30 23 13 358 345 338 330 325 326 324 323 321 318 318 316 313 310 309 308 307 305 304 302 301 302 302 302 303 304 303 303 302 302 302 303
26 26 26 26 22 17 16 13 5 355 344 331 321 318 315 312 308 305 303 302 301 301 300 299 299 300 300 300 298 298 298 298 299 299 300 301 301 301 300 300 301 301 302
8 4 3 0 354 347 343 338 333 328 325 320 317 313 311 308 305 302 301 299 298 297 296 295 295 295 294 294 294 293 294 295 295 296 298 299 299 299 299 300 300 300 301
344 342 339 336 334 328 323 319 318 315 313 312 311 309 307 304 303 301 300 298 296 295 294 293 294 294 294 293 292 292 292 293 293 293 294 295 296 296 297 298 299 299 300
Height
5785 5783 5781 5779 5778 5776 5775 5774 5773 5772 5771 5770 5769 5769 5769 5769 5769 5770 5770 5770 5770 5771 5771 5771 5772 5772 5773 5773 5774 5774 5775 5776 5778 5779 5780 5781 5782 5783 5783 5783 5784 5785 5785
5779 5777 5775 5773 5771 5770 5769 5768 5767 5766 5765 5764 5763 5762 5762 5762 5763 5763 5763 5764 5764 5764 5764 5765 5765 5765 5766 5766 5767 5768 5769 5770 5772 5773 5774 5775 5776 5777 5777 5778 5778 5779 5779
5774 5771 5768 5766 5765 5763 5762 5761 5761 5760 5759 5758 5757 5756 5756 5756 5757 5757 5757 5758 5758 5758 5758 5758 5759 5759 5759 5760 5761 5762 5763 5765 5766 5767 5768 5769 5770 5771 5772 5772 5772 5773 5773
5768 5765 5763 5761 5759 5758 5757 5756 5755 5754 5753 5752 5752 5751 5751 5751 5751 5751 5751 5752 5752 5752 5752 5753 5753 5753 5753 5754 5755 5757 5758 5759 5761 5762 5763 5764 5765 5766 5766 5767 5768 5768 5768
5764 5761 5759 5757 5755 5754 5752 5751 5750 5749 5748 5747 5747 5746 5746 5746 5746 5746 5746 5747 5747 5747 5747 5748 5748 5748 5749 5750 5751 5752 5753 5755 5756 5757 5758 5759 5760 5761 5762 5762 5763 5763 5763
5761 5758 5756 5754 5751 5750 5749 5748 5746 5745 5744 5743 5743 5742 5742 5741 5741 5742 5742 5743 5743 5743 5743 5744 5744 5744 5745 5746 5747 5748 5749 5750 5751 5752 5754 5755 5756 5756 5757 5758 5759 5759 5759
5757 5755 5753 5751 5749 5747 5746 5744 5743 5742 5741 5740 5740 5739 5738 5738 5738 5738 5738 5739 5739 5740 5740 5740 5741 5741 5742 5743 5743 5744 5745 5746 5748 5749 5750 5751 5752 5753 5754 5754 5755 5755 5756
5755 5753 5751 5748 5746 5745 5743 5742 5741 5739 5739 5738 5737 5736 5736 5735 5735 5735 5735 5735 5736 5736 5736 5737 5738 5738 5739 5740 5740 5742 5743 5743 5744 5745 5747 5748 5749 5750 5751 5751 5752 5752 5752
5752 5750 5748 5746 5744 5743 5741 5740 5739 5738 5737 5736 5735 5734 5734 5733 5733 5732 5733 5733 5733 5733 5734 5734 5735 5735 5736 5737 5738 5739 5740 5741 5742 5743 5744 5745 5746 5747 5748 5749 5750 5750 5750
5750 5748 5747 5745 5743 5742 5740 5739 5738 5737 5736 5735 5734 5733 5733 5732 5732 5731 5731 5731 5731 5731 5732 5732 5732 5733 5734 5735 5736 5737 5738 5739 5740 5741 5742 5744 5745 5746 5747 5747 5748 5748 5749
5748 5747 5746 5744 5742 5741 5740 5738 5737 5736 5735 5735 5734 5733 5732 5732 5731 5731 5731 5731 5731 5731 5731 5731 5732 5732 5733 5734 5735 5736 5737 5738 5739 5740 5741 5743 5743 5744 5745 5746 5746 5746 5747
5747 5746 5745 5744 5742 5741 5740 5739 5738 5736 5735 5735 5734 5733 5733 5732 5732 5732 5731 5731 5731 5731 5731 5732 5732 5732 5733 5734 5735 5736 5737 5737 5738 5740 5741 5742 5743 5744 5744 5745 5745 5745 5745
5746 5746 5745 5744 5743 5741 5740 5739 5738 5737 5736 5736 5735 5734 5734 5733 5733 5733 5733 5732 5732 5732 5732 5732 5733 5733 5734 5735 5736 5737 5737 5738 5739 5740 5741 5742 5743 5743 5744 5744 5744 5744 5744
5746 5746 5745 5744 5743 5742 5741 5740 5739 5738 5738 5737 5736 5735 5735 5735 5735 5734 5734 5734 5734 5733 5734 5734 5735 5735 5736 5736 5737 5738 5738 5739 5740 5741 5741 5742 5743 5743 5743 5744 5744 5744 5744
5747 5746 5746 5745 5744 5743 5742 5741 5741 5740 5739 5738 5737 5737 5737 5736 5736 5736 5736 5736 5736 5736 5736 5736 5737 5737 5738 5738 5739 5739 5740 5741 5741 5742 5742 5743 5743 5743 5743 5743 5743 5743 5743
5748 5747 5747 5746 5745 5745 5744 5743 5742 5741 5740 5740 5739 5739 5738 5738 5738 5738 5738 5738 5738 5738 5739 5739 5739 5739 5739 5740 5740 5741 5741 5742 5742 5743 5743 5743 5743 5743 5743 5743 5743 5742 5742
5750 5749 5749 5748 5747 5746 5746 5745 5744 5743 5742 5742 5741 5741 5741 5741 5741 5741 5741 5741 5741 5741 5741 5741 5741 5741 5741 5742 5742 5742 5743 5743 5743 5743 5744 5744 5743 5743 5743 5742 5742 5741 5741
5752 5751 5751 5750 5749 5748 5748 5747 5746 5746 5745 5745 5745 5744 5744 5744 5744 5743 5743 5743 5744 5743 5743 5743 5743 5743 5743 5743 5744 5744 5744 5744 5744 5744 5744 5743 5743 5743 5742 5742 5741 5740 5739
5754 5753 5753 5752 5752 5751 5750 5749 5749 5749 5748 5748 5748 5747 5747 5747 5746 5746 5746 5746 5746 5746 5746 5745 5745 5745 5745 5745 5745 5745 5744 5744 5744 5744 5743 5743 5743 5742 5741 5741 5740 5739 5737
5756 5755 5755 5754 5754 5753 5752 5752 5751 5751 5751 5751 5750 5750 5750 5749 5749 5749 5748 5748 5748 5748 5747 5747 5746 5746 5746 5746 5745 5745 5745 5745 5744 5744 5743 5742 5742 5741 5740 5739 5737 5736 5735
5759 5758 5757 5756 5756 5755 5754 5754 5753 5753 5753 5753 5753 5752 5752 5752 5751 5751 5751 5750 5750 5749 5749 5748 5748 5747 5747 5746 5746 5745 5745 5744 5744 5743 5742 5741 5740 5739 5737 5736 5734 5733 5731
5761 5760 5759 5758 5758 5757 5756 5756 5755 5755 5755 5754 5754 5754 5753 5753 5753 5752 5752 5751 5751 5750 5749 5749 5748 5748 5747 5746 5745 5745 5744 5743 5742 5741 5740 5739 5737 5736 5734 5732 5731 5729 5727
5763 5762 5761 5760 5759 5759 5758 5757 5757 5756 5756 5755 5755 5755 5754 5754 5753 5753 5752 5751 5751 5750 5749 5748 5748 5747 5746 5745 5744 5743 5742 5741 5740 5738 5737 5735 5734 5732 5730 5728 5726 5724 5721
5765 5764 5763 5762 5761 5760 5759 5759 5758 5757 5757 5756 5755 5755 5754 5753 5753 5752 5751 5751 5750 5749 5748 5747 5746 5745 5744 5743 5741 5740 5739 5738 5736 5734 5732 5731 5729 5727 5725 5723 5721 5718 5715
5766 5765 5764 5763 5762 5761 5760 5759 5758 5757 5757 5756 5755 5754 5753 5752 5752 5751 5750 5749 5748 5747 5746 5744 5743 5742 5741 5739 5738 5736 5735 5733 5731 5729 5727 5725 5723 5721 5719 5717 5714 5711 5708
5767 5765 5764 5763 5762 5761 5760 5759 5758 5757 5756 5755 5754 5753 5751 5750 5749 5748 5747 5746 5745 5743 5742 5741 5739 5738 5736 5735 5733 5731 5730 5728 5726 5723 5721 5719 5717 5714 5712 5709 5706 5704 5700